Precipitable_Water
1.80 1.88 1.87 1.89 1.87 1.76 1.63 1.59 1.58 1.56 1.50 1.41 1.34 1.33 1.27 1.29 1.26 1.15 0.95 0.71 0.66 0.65 0.71 0.71 0.72 0.73 0.77 0.77 0.75 0.74 0.77 0.78 0.78 0.76 0.74 0.74 0.72 0.72 0.71 0.70 0.68 0.67 0.69
1.78 1.87 1.85 1.85 1.83 1.74 1.74 1.65 1.56 1.56 1.50 1.45 1.35 1.38 1.29 1.26 1.24 1.16 0.90 0.69 0.62 0.65 0.70 0.72 0.72 0.73 0.74 0.73 0.72 0.74 0.76 0.77 0.76 0.75 0.74 0.71 0.69 0.68 0.69 0.70 0.69 0.69 0.68
1.73 1.86 1.83 1.81 1.75 1.73 1.78 1.74 1.67 1.62 1.53 1.48 1.35 1.40 1.33 1.23 1.20 1.11 0.92 0.71 0.61 0.64 0.69 0.70 0.74 0.75 0.75 0.71 0.71 0.73 0.75 0.74 0.73 0.74 0.75 0.74 0.71 0.67 0.66 0.67 0.67 0.67 0.65
1.75 1.86 1.82 1.76 1.76 1.73 1.76 1.73 1.69 1.62 1.55 1.52 1.39 1.40 1.33 1.23 1.16 1.10 0.96 0.75 0.62 0.63 0.66 0.68 0.73 0.75 0.74 0.71 0.70 0.71 0.70 0.71 0.73 0.70 0.72 0.72 0.71 0.70 0.66 0.65 0.63 0.62 0.60
1.78 1.80 1.77 1.81 1.76 1.72 1.73 1.72 1.71 1.62 1.56 1.52 1.44 1.40 1.38 1.24 1.14 1.09 0.99 0.80 0.65 0.61 0.64 0.65 0.71 0.72 0.73 0.70 0.68 0.67 0.68 0.68 0.71 0.69 0.69 0.72 0.72 0.72 0.68 0.65 0.61 0.59 0.58
1.73 1.70 1.78 1.79 1.77 1.70 1.68 1.75 1.71 1.65 1.63 1.56 1.47 1.40 1.42 1.30 1.17 1.08 1.01 0.89 0.78 0.63 0.63 0.65 0.68 0.70 0.69 0.68 0.67 0.64 0.66 0.66 0.69 0.69 0.68 0.71 0.72 0.70 0.69 0.65 0.63 0.61 0.59
1.76 1.67 1.75 1.79 1.76 1.68 1.66 1.72 1.72 1.61 1.61 1.60 1.46 1.39 1.39 1.31 1.20 1.06 1.06 0.95 0.86 0.75 0.64 0.67 0.68 0.68 0.65 0.65 0.65 0.64 0.65 0.67 0.69 0.70 0.69 0.70 0.71 0.70 0.68 0.67 0.66 0.63 0.61
1.76 1.74 1.77 1.72 1.75 1.68 1.67 1.64 1.68 1.60 1.60 1.60 1.39 1.32 1.14 1.15 1.19 1.03 1.06 1.00 0.92 0.83 0.73 0.75 0.74 0.71 0.67 0.62 0.60 0.60 0.64 0.68 0.69 0.72 0.71 0.70 0.72 0.71 0.71 0.69 0.66 0.65 0.62
1.73 1.75 1.77 1.73 1.70 1.64 1.60 1.60 1.62 1.61 1.50 1.57 1.54 1.30 1.18 1.04 1.06 1.02 1.00 1.03 0.98 0.90 0.88 0.86 0.83 0.79 0.72 0.67 0.62 0.57 0.60 0.66 0.71 0.74 0.74 0.73 0.74 0.73 0.73 0.73 0.71 0.68 0.66
1.58 1.76 1.78 1.71 1.66 1.62 1.56 1.60 1.65 1.64 1.60 1.45 1.53 1.54 1.50 1.31 1.01 0.81 0.95 0.97 1.04 0.96 0.92 0.91 0.89 0.85 0.79 0.72 0.64 0.59 0.57 0.61 0.68 0.75 0.78 0.78 0.78 0.77 0.76 0.77 0.76 0.74 0.72
1.58 1.64 1.74 1.72 1.65 1.58 1.48 1.53 1.62 1.64 1.64 1.54 1.49 1.45 1.47 1.30 1.24 0.96 0.82 0.81 0.96 1.00 0.98 0.97 0.95 0.90 0.83 0.75 0.68 0.62 0.57 0.62 0.66 0.72 0.78 0.81 0.85 0.82 0.80 0.81 0.80 0.79 0.77
1.49 1.59 1.64 1.66 1.66 1.53 1.39 1.37 1.55 1.59 1.61 1.59 1.53 1.39 1.28 1.12 1.14 1.06 1.00 0.89 0.86 0.94 1.00 1.00 0.98 0.94 0.89 0.81 0.75 0.68 0.61 0.63 0.67 0.72 0.77 0.80 0.87 0.87 0.84 0.84 0.84 0.84 0.83
1.42 1.48 1.62 1.60 1.67 1.61 1.50 1.45 1.39 1.45 1.50 1.54 1.54 1.26 1.26 1.34 1.34 1.25 1.21 0.97 0.83 0.94 0.98 0.98 0.98 0.98 0.95 0.91 0.85 0.78 0.72 0.70 0.73 0.75 0.77 0.79 0.86 0.90 0.90 0.88 0.88 0.88 0.88
1.40 1.45 1.54 1.64 1.63 1.65 1.63 1.54 1.45 1.49 1.44 1.38 1.36 1.25 1.22 1.40 1.45 1.31 1.22 1.25 0.86 0.86 0.97 0.92 0.97 0.96 0.97 0.92 0.89 0.87 0.86 0.84 0.84 0.82 0.80 0.82 0.85 0.89 0.92 0.92 0.91 0.90 0.89
1.47 1.43 1.49 1.57 1.64 1.66 1.65 1.59 1.53 1.47 1.42 1.35 1.32 1.21 1.16 1.35 1.43 1.37 1.35 1.32 1.05 0.78 0.86 0.96 0.90 1.01 1.02 1.00 0.93 0.93 0.99 1.02 0.98 0.93 0.90 0.87 0.89 0.91 0.90 0.94 0.95 0.98 0.91
1.32 1.49 1.47 1.53 1.56 1.60 1.64 1.64 1.56 1.54 1.50 1.40 1.33 1.24 1.19 1.28 1.36 1.39 1.42 1.46 1.35 1.04 0.87 1.04 1.04 1.04 1.08 1.10 1.12 1.10 1.12 1.12 1.08 1.03 1.01 1.01 1.00 0.98 0.97 0.99 0.99 1.01 0.98
1.22 1.35 1.42 1.48 1.50 1.52 1.56 1.59 1.54 1.50 1.48 1.41 1.37 1.33 1.23 1.29 1.32 1.34 1.43 1.53 1.46 1.28 0.97 1.09 1.17 1.16 1.11 1.10 1.11 1.12 1.15 1.15 1.13 1.09 1.08 1.08 1.08 1.05 1.04 1.04 1.01 1.02 1.02
1.19 1.18 1.41 1.35 1.39 1.52 1.55 1.53 1.43 1.52 1.43 1.40 1.34 1.27 1.22 1.34 1.41 1.44 1.53 1.50 1.52 1.37 1.20 1.06 1.20 1.21 1.17 1.26 1.16 1.11 1.10 1.17 1.14 1.12 1.13 1.13 1.14 1.12 1.09 1.05 1.00 1.03 1.02
1.00 1.20 1.25 1.31 1.44 1.48 1.47 1.53 1.53 1.48 1.46 1.46 1.45 1.39 1.36 1.44 1.47 1.51 1.51 1.51 1.50 1.39 1.33 1.10 1.20 1.28 1.23 1.26 1.21 1.20 1.18 1.21 1.16 1.16 1.16 1.17 1.20 1.17 1.14 1.09 1.04 1.07 1.07
0.91 1.03 1.13 1.21 1.26 1.27 1.30 1.43 1.49 1.49 1.45 1.43 1.44 1.46 1.44 1.44 1.42 1.45 1.50 1.49 1.49 1.43 1.34 1.22 1.21 1.19 1.16 1.24 1.26 1.19 1.19 1.26 1.18 1.20 1.20 1.22 1.24 1.22 1.27 1.09 1.08 1.11 1.12
0.76 0.88 0.99 1.13 1.16 1.28 1.29 1.25 1.31 1.44 1.42 1.35 1.37 1.46 1.50 1.52 1.54 1.51 1.48 1.49 1.48 1.36 1.29 1.04 1.07 1.09 1.03 1.03 1.06 1.21 1.22 1.27 1.23 1.26 1.27 1.29 1.29 1.25 1.18 1.17 1.21 1.18 1.15
0.70 0.76 0.83 0.94 0.98 0.97 1.10 1.22 1.28 1.42 1.48 1.45 1.34 1.34 1.43 1.48 1.50 1.49 1.49 1.50 1.50 1.39 1.27 1.09 0.94 0.82 0.93 0.97 1.12 1.19 1.25 1.23 1.14 1.35 1.28 1.27 1.28 1.19 1.16 1.18 1.26 1.26 1.19
0.64 0.70 0.77 0.85 0.96 1.02 1.02 1.10 1.26 1.32 1.38 1.46 1.41 1.39 1.34 1.36 1.44 1.48 1.46 1.44 1.46 1.36 1.25 1.11 0.89 0.94 0.91 1.03 1.10 1.13 1.25 1.25 1.23 1.30 1.25 1.14 1.20 1.11 1.14 1.15 1.23 1.23 1.18
0.59 0.62 0.73 0.84 0.90 0.97 0.95 1.03 1.13 1.07 1.23 1.45 1.44 1.40 1.34 1.34 1.38 1.42 1.49 1.22 1.26 1.24 1.17 1.15 1.05 1.07 1.11 1.09 1.09 1.07 1.11 1.23 1.30 1.28 1.20 0.98 1.05 1.03 1.08 1.13 1.19 1.22 1.16
0.58 0.60 0.63 0.71 0.79 0.88 0.94 0.97 1.03 1.12 1.18 1.20 1.25 1.35 1.26 1.46 1.41 1.42 1.41 1.27 1.18 1.16 1.20 1.19 1.12 1.16 1.21 1.17 1.18 1.08 1.00 0.93 0.87 0.85 0.92 0.91 0.93 0.93 1.01 1.05 1.11 1.13 1.13
0.56 0.58 0.58 0.61 0.63 0.71 0.81 0.88 0.92 1.02 1.05 1.16 1.25 1.31 1.31 1.37 1.31 1.46 1.37 1.36 1.27 1.24 1.20 1.10 1.14 1.25 1.30 1.22 1.13 1.13 1.04 0.85 0.82 0.76 0.86 0.76 0.74 0.77 0.76 0.95 1.01 1.07 1.11
Wind_Speed
20 24 21 25 32 28 28 27 25 23 22 21 19 17 16 14 12 11 11 12 14 15 14 13 12 11 10 9 9 8 7 7 7 7 7 7 6 6 6 6 6 7 8
22 23 20 26 32 30 29 28 26 25 23 22 21 19 17 15 13 12 12 14 15 15 15 13 13 12 11 10 9 8 7 7 6 6 6 6 6 6 6 6 6 6 7
24 27 21 26 31 32 30 29 27 26 25 22 21 21 18 16 15 14 13 15 16 16 15 14 13 12 11 10 9 8 7 5 5 5 5 5 5 5 6 6 6 6 7
25 29 25 25 30 36 33 29 29 28 27 25 23 22 20 18 17 15 15 16 17 17 16 15 14 13 12 10 9 8 6 5 3 2 3 4 4 4 5 6 6 7 8
27 30 28 30 25 34 34 32 31 30 30 27 25 24 22 19 18 17 16 17 18 17 17 16 15 14 13 11 10 9 7 4 2 0 1 2 3 4 5 6 7 8 9
28 27 30 34 30 30 35 34 33 32 32 32 28 25 23 21 20 19 18 18 18 18 18 17 16 15 14 12 11 10 8 6 4 2 2 3 4 5 6 7 8 9 10
30 29 28 31 29 32 32 32 34 32 33 35 30 26 24 23 21 20 19 19 19 20 19 19 17 16 15 14 13 11 10 8 6 5 4 4 5 6 7 8 9 10 11
31 31 30 29 32 31 31 35 36 35 36 37 31 29 26 24 23 23 21 20 20 20 21 20 19 18 17 16 15 14 12 10 8 7 6 6 7 7 8 9 10 11 12
31 31 29 28 28 29 29 32 39 41 41 39 36 31 27 24 24 24 24 22 21 21 22 22 21 20 19 18 17 16 14 12 11 9 9 8 8 8 9 10 10 12 13
32 33 31 30 29 27 28 28 39 40 43 39 38 35 31 27 25 23 24 24 23 23 23 23 23 22 21 20 19 18 17 15 13 12 11 10 10 10 10 11 11 13 14
35 33 32 33 31 29 25 29 37 38 40 39 37 34 32 30 27 23 22 22 24 25 25 25 25 24 23 22 21 20 19 17 16 14 13 12 11 11 11 12 12 14 14
35 36 34 34 33 30 28 24 28 39 38 39 39 37 35 32 30 26 23 22 22 24 26 26 26 25 24 24 23 22 21 20 18 17 16 14 13 13 13 13 14 15 14
36 35 36 33 31 32 30 30 28 29 37 40 41 38 38 36 32 30 26 23 23 22 23 26 27 27 26 26 25 24 23 22 21 19 18 17 16 16 15 15 16 15 15
38 37 36 36 31 34 34 34 32 32 33 38 41 41 40 39 37 34 30 27 25 24 24 24 27 28 28 27 26 26 25 24 23 22 21 20 19 18 18 18 17 17 18
37 38 38 37 37 35 37 37 36 34 36 37 41 44 44 42 40 38 35 32 29 26 25 25 25 27 28 28 28 27 27 26 25 24 23 22 21 21 20 20 20 19 20
37 39 38 38 37 38 36 38 38 36 36 38 39 44 46 44 41 40 38 36 34 31 29 26 25 25 27 27 28 29 28 27 27 26 26 25 24 23 22 22 22 22 22
38 37 40 39 38 39 39 40 40 37 37 35 36 42 47 45 43 41 40 38 38 36 33 31 29 28 27 28 27 29 29 29 28 28 28 27 26 25 25 24 24 24 24
39 39 37 43 40 41 38 39 41 39 37 38 36 37 44 45 47 45 42 42 41 40 37 36 34 32 30 29 29 28 28 29 29 28 29 28 28 27 27 26 26 26 26
39 38 37 36 38 41 42 35 38 42 41 41 41 40 40 41 44 44 45 43 43 43 41 39 37 35 33 31 30 30 29 29 29 29 29 29 29 29 29 29 29 29 29
35 38 41 38 41 39 33 39 37 40 42 42 42 42 42 44 46 43 44 42 44 41 41 41 40 38 36 35 34 31 30 30 30 30 30 30 30 30 31 31 30 30 30
36 36 37 37 39 40 39 39 40 42 45 43 43 44 43 43 43 43 41 42 45 44 42 42 40 39 38 36 35 33 33 32 32 31 31 31 31 30 30 31 32 32 32
34 35 36 36 36 33 33 39 37 43 39 41 40 42 44 45 43 43 43 43 45 48 46 44 42 42 40 39 37 36 35 33 33 34 33 32 32 32 32 32 33 33 33
33 34 34 35 37 36 33 34 35 33 41 44 44 44 44 44 44 42 44 45 43 44 45 43 43 42 39 39 37 37 37 37 36 33 33 32 32 33 33 33 34 34 34
31 32 34 35 34 34 33 34 36 34 35 35 36 41 47 46 46 45 41 43 44 45 46 45 43 41 40 39 40 39 39 38 37 36 35 34 34 34 34 35 35 35 35
30 31 32 33 33 34 33 32 35 36 36 37 40 40 37 38 46 45 44 44 44 46 45 46 46 44 43 43 41 39 38 38 38 37 37 36 35 35 36 36 36 36 36
28 29 30 31 33 33 32 33 34 34 34 38 39 39 34 38 39 45 46 46 44 46 46 45 47 47 45 45 45 44 42 41 39 38 38 39 37 36 36 36 36 35 34
Wind_Direction
221 198 210 212 197 196 196 196 197 196 197 197 197 196 195 195 194 191 189 184 179 176 173 170 166 162 158 152 144 134 123 112 101 92 83 76 68 62 56 52 46 38 32
218 214 214 201 199 199 198 200 202 202 201 201 201 199 198 198 198 193 190 187 183 180 179 175 172 169 165 160 154 143 131 118 104 89 78 71 64 57 51 43 35 28 23
221 214 218 209 203 204 204 204 205 204 203 203 203 201 201 201 199 196 192 189 187 186 184 182 179 176 174 170 165 157 146 131 113 87 71 64 56 49 41 34 27 19 13
222 214 216 212 217 208 206 208 207 206 206 206 204 203 202 203 200 198 195 192 191 190 190 189 186 184 182 181 178 174 167 157 134 93 59 49 37 29 24 19 12 6 0
224 221 222 218 215 207 209 213 211 210 208 208 207 204 204 204 202 200 198 196 195 195 195 194 193 192 191 192 191 189 188 188 186 173 19 12 7 5 1 358 354 351 349
227 226 229 218 219 216 216 218 216 215 215 210 205 204 205 206 206 204 202 201 201 200 200 200 200 201 201 202 202 203 205 211 220 247 296 324 333 338 339 342 343 341 343
229 229 229 224 229 216 218 220 216 218 213 207 203 205 207 209 210 208 206 205 205 205 205 206 206 207 209 210 211 214 217 224 235 254 278 298 311 319 325 331 335 337 336
232 228 227 226 225 223 227 227 218 215 209 205 208 205 209 212 213 212 210 210 210 210 210 211 212 213 214 216 219 221 225 231 240 255 272 287 299 306 314 321 328 331 331
230 230 230 227 226 226 228 226 219 214 211 210 210 209 207 213 210 213 214 215 215 215 215 216 218 219 220 222 224 226 229 234 243 253 266 280 291 298 306 314 320 325 329
232 229 227 229 227 228 231 226 213 212 209 209 213 216 214 211 211 213 217 219 220 220 220 220 222 223 225 226 227 230 232 236 243 252 263 274 285 292 299 308 314 321 324
231 231 230 226 227 228 230 225 213 208 210 213 211 210 211 211 212 214 216 220 223 224 224 224 225 226 227 228 229 232 234 238 244 250 259 268 280 287 293 301 309 317 320
232 230 230 229 224 225 222 216 213 216 214 214 212 212 211 213 214 216 220 222 224 226 226 226 227 228 229 230 232 234 236 239 244 249 256 264 274 282 288 293 303 309 314
231 230 229 230 225 223 223 219 218 214 215 217 215 216 216 217 219 220 222 226 227 228 228 229 229 230 231 232 234 235 237 240 244 250 255 262 269 277 283 289 297 303 309
232 230 231 230 230 227 226 224 224 223 220 220 220 221 220 220 222 223 227 227 230 232 231 232 231 232 233 234 235 236 239 241 245 250 255 261 266 273 278 284 290 295 304
233 232 230 232 232 231 228 227 228 227 226 226 226 224 224 224 225 227 229 229 232 234 234 233 232 233 234 235 236 237 240 243 245 250 254 260 264 270 275 278 284 289 295
236 232 231 232 233 231 233 227 227 229 229 229 230 226 225 223 225 227 230 231 233 235 236 233 234 235 234 237 238 240 242 244 247 250 254 258 263 268 273 275 280 284 292
234 233 232 235 235 232 234 234 231 228 229 229 229 226 223 224 226 228 230 234 233 233 235 236 237 237 237 238 240 242 243 244 248 250 253 257 262 267 270 273 278 282 288
237 238 238 235 236 234 237 236 230 230 230 230 230 228 226 228 229 230 233 236 236 233 235 237 238 238 239 240 241 243 242 245 248 252 254 257 261 265 268 272 276 279 285
238 238 236 235 230 235 234 238 229 232 233 234 233 231 228 228 229 234 234 235 235 233 236 236 238 238 239 240 242 243 244 246 249 252 255 257 261 264 267 271 275 278 282
239 238 236 238 236 238 242 235 235 236 236 236 233 232 233 233 234 235 233 235 230 232 235 236 237 238 239 241 243 243 244 247 250 252 256 258 261 264 267 271 273 277 281
239 239 238 238 243 241 241 240 245 237 237 234 233 234 234 233 235 236 237 234 230 233 236 235 236 237 239 240 241 243 245 248 250 253 257 260 261 266 269 271 273 276 279
240 239 239 238 239 243 243 241 244 237 236 232 232 235 235 236 238 236 237 237 237 233 235 231 235 237 240 241 242 241 244 247 252 253 257 260 262 266 270 273 274 274 278
240 240 240 239 241 244 246 245 238 240 240 236 236 237 237 238 238 240 238 239 237 232 227 232 234 236 239 239 240 242 243 247 252 254 256 260 262 266 270 273 274 276 277
242 241 241 241 241 242 246 245 243 248 239 235 239 241 242 240 239 238 239 235 233 231 232 234 234 237 240 241 242 244 244 248 251 254 256 261 262 266 269 273 274 274 276
242 242 242 243 243 243 247 247 247 246 241 243 242 239 245 241 236 236 238 234 233 235 235 236 237 240 244 243 242 243 245 248 251 254 255 260 263 266 269 271 274 274 275
241 242 244 244 245 246 248 251 252 249 250 244 242 239 245 237 242 236 236 234 237 237 236 237 240 242 243 243 242 243 247 249 253 255 256 258 262 265 269 270 272 274 273